Theta_e
324 328 326 326 327 325 327 329 328 326 327 327 326 329 336 339 335 348 341 342 344 346 344 339 337 339 340 339 337 335 334 326 326 321 324 330 327 322 314 311 310 311 314 323 327 328 328 326 319
334 328 326 325 326 326 327 327 327 327 326 327 329 329 335 342 343 343 342 342 343 346 342 343 337 338 340 339 334 335 324 323 321 322 329 335 329 325 316 311 311 312 314 325 327 327 324 320 315
327 327 324 324 324 325 327 326 326 327 326 327 329 334 337 345 343 341 342 341 344 346 345 343 341 338 341 334 335 335 326 324 321 326 329 334 335 328 318 313 313 314 315 323 324 322 318 316 319
329 326 326 325 325 324 325 325 326 326 323 327 328 333 342 344 343 342 342 341 345 346 346 344 339 340 336 335 340 329 328 326 323 327 331 337 336 330 320 315 314 315 315 318 319 317 316 318 320
330 325 325 326 325 324 325 326 326 326 327 326 330 339 343 345 344 345 342 342 345 344 348 341 341 340 336 335 331 326 324 323 324 327 332 337 338 329 321 316 316 315 315 316 316 316 317 319 320
328 326 327 327 325 325 325 326 325 326 324 328 330 338 344 343 345 343 342 343 344 344 344 342 343 338 337 335 331 324 318 324 326 327 332 336 338 332 324 319 316 317 317 316 316 317 318 319 319
329 328 327 327 326 326 325 325 326 326 325 332 334 336 345 344 344 344 342 343 343 345 344 342 341 338 338 336 332 322 318 323 327 326 331 339 337 335 328 322 319 316 318 318 318 318 318 319 319
327 328 328 327 326 326 325 325 326 326 326 333 336 336 343 344 343 344 343 342 343 344 344 343 341 339 337 335 333 321 319 321 327 328 329 338 330 322 326 323 322 319 316 317 319 319 319 319 319
325 329 330 327 327 325 325 325 325 324 327 328 330 337 338 342 343 342 343 341 343 342 341 344 342 342 341 339 333 326 318 320 324 322 320 326 333 325 324 322 323 322 320 317 316 318 319 319 319
324 329 327 326 325 326 323 325 325 325 327 327 328 331 337 342 343 342 343 341 342 341 342 343 341 341 341 340 334 334 319 317 326 326 316 335 336 336 334 321 321 321 321 321 318 316 317 319 326
324 326 326 325 324 324 326 325 325 325 327 326 326 329 339 342 343 343 344 344 343 342 342 342 341 341 341 340 337 338 336 332 331 333 333 332 331 324 315 323 316 317 318 320 322 319 321 330 322
324 323 322 324 325 325 326 324 324 325 326 324 324 329 338 341 342 342 344 344 343 343 342 342 341 340 341 340 340 338 337 337 336 336 335 333 330 327 329 328 329 323 328 330 332 331 329 327 321
323 323 323 324 324 324 324 324 325 324 325 324 324 326 334 338 340 341 340 342 342 342 341 343 341 342 341 340 339 339 338 337 337 336 335 334 333 331 330 328 326 326 324 327 330 330 329 328 327
319 321 322 324 322 324 324 324 323 323 324 324 323 324 328 338 339 339 340 340 341 341 341 341 342 342 340 341 339 340 338 338 337 337 336 329 333 331 326 329 323 322 323 329 331 332 332 332 332
319 320 322 324 323 325 324 325 324 321 323 323 324 324 325 325 333 339 340 338 340 342 342 341 343 341 340 341 340 339 338 338 338 338 337 329 330 331 330 330 333 330 331 331 331 331 331 332 332
320 321 323 322 323 324 324 326 324 321 323 324 324 324 324 324 323 324 335 339 341 341 341 342 342 341 340 340 339 339 339 338 339 339 338 337 332 330 331 332 333 335 334 333 334 334 334 334 334
320 320 321 321 322 324 325 323 323 322 321 322 323 323 324 324 323 322 323 332 339 341 341 342 342 340 340 340 340 339 339 339 339 339 339 339 338 336 333 333 333 334 335 335 335 335 335 335 335
318 319 319 320 323 323 325 324 323 323 322 322 322 323 323 324 324 322 321 321 331 339 341 341 340 340 341 340 341 340 341 340 340 340 339 340 339 339 336 336 335 336 335 335 335 335 336 335 334
314 315 319 318 321 324 324 324 323 322 322 323 322 322 322 324 324 323 320 319 321 333 337 339 338 338 340 340 340 339 340 339 339 338 339 338 338 337 338 336 336 336 335 335 335 334 334 334 333
316 316 319 319 321 323 322 323 323 322 321 321 321 322 322 323 323 323 321 320 318 318 330 334 337 338 338 340 338 339 339 339 339 338 334 335 336 337 336 336 336 336 336 336 335 335 335 336 335
316 317 320 321 321 321 321 322 322 322 321 320 320 321 322 322 323 323 322 321 321 317 318 327 332 332 331 335 335 332 333 332 333 334 333 327 328 330 332 332 331 331 333 336 335 335 334 331 330
318 316 318 319 322 322 320 319 320 321 321 320 320 321 321 322 322 322 323 320 321 317 318 317 317 320 321 320 326 329 331 331 331 328 326 322 320 320 319 319 320 320 321 322 321 320 320 325 325
316 317 318 320 321 318 321 321 318 319 322 321 320 320 320 320 320 322 322 321 321 317 316 318 317 317 317 318 321 323 325 326 323 318 316 316 316 315 315 314 314 314 314 314 314 314 313 312 313
317 318 318 318 317 320 318 318 317 318 318 318 318 319 319 319 319 320 321 318 320 319 316 316 317 317 316 317 317 317 316 316 315 314 314 314 313 313 313 312 312 313 313 312 312 312 312 312 313
317 317 319 319 320 320 317 317 317 318 317 317 316 317 318 318 319 319 319 318 318 319 317 316 315 315 315 315 315 315 314 314 313 313 313 312 312 312 312 312 312 312 312 312 312 312 313 313 313
317 316 317 316 317 316 316 317 317 317 316 316 315 315 315 315 318 318 319 318 317 318 317 316 315 315 315 315 314 314 314 313 313 312 312 312 312 312 312 312 312 312 311 311 311 311 311 312 312
317 318 313 317 315 317 317 316 316 314 315 315 314 313 314 315 315 314 315 317 317 317 316 316 314 315 315 314 314 314 313 312 312 312 312 312 311 311 311 310 310 310 309 309 309 309 309 310 311
317 316 316 318 319 316 315 315 315 315 315 314 314 313 313 312 312 313 313 313 316 316 314 314 314 314 314 314 313 313 312 312 312 311 311 310 310 309 309 309 309 308 308 308 308 308 308 308 309
316 316 317 316 317 318 315 315 315 315 314 315 315 314 314 314 313 313 313 314 315 315 314 314 313 313 314 313 313 312 312 312 311 311 311 310 310 309 309 308 308 307 307 308 308 308 308 308 308
316 316 315 317 317 316 317 317 313 315 313 314 315 314 314 314 314 314 313 314 314 314 313 313 313 314 313 313 313 312 312 312 311 311 310 309 309 309 308 308 307 307 308 308 308 308 307 307 307
Wind_Speed
7 4 5 4 5 7 14 9 2 8 6 2 3 6 4 9 9 5 21 16 22 21 21 20 17 14 11 8 7 5 6 8 9 12 14 13 14 13 13 11 10 9 10 10 10 11 10 10 11
4 5 6 8 7 13 13 11 12 10 6 1 2 4 5 9 11 15 19 21 24 22 22 20 18 16 12 9 7 8 10 10 11 14 14 13 12 12 13 13 13 12 13 13 12 11 11 11 12
7 9 11 5 10 16 15 10 9 6 3 1 2 3 3 7 7 21 13 24 25 21 21 20 19 17 13 10 10 10 10 10 10 14 15 15 9 10 12 13 14 14 15 13 12 11 11 11 12
7 10 12 11 16 21 10 12 5 7 5 3 6 5 5 6 11 10 19 25 23 21 19 21 19 17 14 14 14 10 7 7 11 14 15 16 8 9 11 12 14 14 14 13 12 11 11 12 12
10 15 11 15 18 17 3 9 3 3 9 13 1 4 5 4 4 13 22 24 22 21 19 21 19 17 15 14 11 7 5 9 13 14 15 15 9 8 10 11 12 12 11 11 10 10 10 10 10
14 18 12 17 20 9 8 5 5 1 4 11 5 4 6 2 10 17 22 22 21 20 18 21 19 16 16 14 9 7 10 13 13 13 13 13 8 7 8 9 10 10 10 10 9 8 8 8 8
16 13 19 22 18 9 9 5 6 1 5 5 6 8 5 6 14 16 20 20 20 18 18 18 18 16 15 12 9 8 12 12 13 12 12 10 8 4 8 6 7 7 6 7 6 6 5 5 5
15 9 21 17 15 10 8 6 5 4 6 2 2 8 6 7 16 20 18 19 20 16 19 17 16 15 15 12 10 9 13 12 11 12 12 11 7 5 6 4 3 4 3 3 3 3 3 2 2
11 4 16 12 19 11 8 7 4 2 3 4 3 4 4 7 16 23 22 25 19 19 20 18 17 15 14 9 10 9 11 12 10 9 6 7 2 3 2 3 2 1 1 1 2 1 1 1 2
9 5 22 21 14 13 13 5 7 3 6 5 5 3 2 12 17 20 19 21 22 21 20 19 18 17 14 11 9 7 8 10 8 6 6 6 6 6 8 4 4 4 4 4 4 4 4 3 4
12 11 15 17 8 10 14 11 3 1 2 6 5 4 7 13 19 18 15 16 18 18 17 17 16 17 18 13 10 8 6 7 8 9 8 7 7 7 6 4 5 6 6 6 6 5 4 4 6
10 27 16 12 8 13 14 10 7 6 8 3 5 4 10 17 17 17 14 14 17 16 19 15 16 16 15 13 12 10 9 8 7 8 8 7 5 6 5 5 5 6 5 4 6 5 7 7 7
24 17 24 27 9 14 14 14 10 4 3 1 4 7 6 12 13 16 17 14 16 17 22 16 15 15 15 14 14 11 10 10 8 8 8 7 7 5 5 6 6 6 6 6 6 6 6 6 6
19 18 21 17 11 18 18 13 21 18 8 4 1 6 5 8 12 16 15 14 16 14 15 17 17 15 16 15 14 12 10 8 9 8 7 8 7 6 7 6 6 6 6 6 6 6 6 6 7
5 20 9 16 14 11 18 15 23 27 12 7 5 1 4 3 8 9 9 12 14 14 14 14 14 15 16 15 14 12 11 10 10 9 8 7 7 6 6 6 6 6 7 7 8 8 9 9 9
10 17 13 17 21 9 17 20 20 32 23 11 13 10 3 1 2 4 8 9 11 11 14 14 13 12 14 13 14 12 11 11 10 9 8 8 7 7 7 7 7 8 8 9 9 9 10 10 10
11 13 18 17 19 10 14 10 8 25 27 22 19 16 11 6 3 2 5 9 10 13 14 14 14 13 14 13 12 11 12 11 10 9 9 9 9 10 10 9 10 10 11 11 12 11 12 12 14
14 15 19 13 16 18 13 11 1 14 26 34 28 21 17 12 8 5 4 6 11 11 13 15 16 14 13 13 12 12 11 12 11 11 11 11 11 11 13 13 13 12 13 14 14 15 15 16 16
16 17 19 20 10 14 17 15 14 12 17 27 32 29 24 19 11 8 5 7 8 13 16 15 16 17 15 15 14 14 13 13 13 14 15 15 14 14 15 16 15 15 17 17 17 18 19 19 19
17 19 11 3 10 13 16 15 14 17 22 25 24 35 34 28 19 13 9 9 7 8 12 14 15 14 15 14 15 13 12 12 11 12 14 16 18 19 20 21 21 20 20 22 22 21 22 21 18
17 18 14 13 9 13 9 15 15 17 22 22 24 25 34 34 28 22 16 16 14 12 14 16 17 18 17 18 18 19 18 17 16 17 18 18 19 21 22 23 24 24 25 25 25 26 24 24 24
11 13 14 11 13 7 15 6 17 17 17 20 26 21 24 29 30 26 24 19 20 14 18 17 19 19 19 20 21 20 18 15 15 17 18 19 20 21 22 22 24 24 24 25 24 24 23 20 24
10 8 9 9 12 5 9 6 13 9 17 18 22 21 21 19 17 20 18 23 24 19 17 20 19 19 19 19 19 19 19 19 19 18 19 20 22 23 24 24 24 25 25 25 25 25 25 24 24
9 11 8 4 7 8 14 10 9 10 11 13 16 19 23 21 20 16 20 21 26 25 15 17 19 19 17 17 17 17 16 16 16 17 18 20 21 23 22 22 21 20 21 21 21 21 22 22 21
16 16 5 5 4 6 1 10 12 1 4 4 2 12 18 22 23 21 20 23 25 26 20 17 18 18 18 17 16 16 15 16 16 18 19 19 19 20 21 20 21 22 23 23 23 23 24 23 21
14 17 4 5 7 10 5 6 6 4 4 3 6 10 11 9 15 20 24 24 21 26 24 21 21 22 18 18 17 15 16 18 19 20 20 19 19 20 21 22 22 23 23 22 22 21 20 20 19
9 4 4 3 5 0 7 6 10 4 8 7 8 5 6 9 10 12 14 17 19 24 24 24 24 21 21 20 17 16 16 17 18 18 18 19 20 20 20 19 19 19 19 19 18 18 18 18 17
4 9 4 1 4 5 5 5 3 8 7 6 5 4 3 4 7 8 11 14 18 23 22 22 21 21 19 17 17 16 16 16 17 17 18 17 18 18 18 18 18 18 18 18 18 18 18 17 18
4 4 4 3 2 3 2 3 8 8 7 8 10 11 10 6 4 6 7 11 16 16 20 21 21 20 18 17 15 15 15 15 15 16 17 18 18 18 18 18 18 18 18 17 17 17 16 16 16
5 12 12 5 5 2 4 2 4 10 4 4 5 6 9 7 4 3 6 11 15 18 18 21 20 17 15 14 13 14 14 15 16 17 18 18 19 18 18 18 18 18 17 16 15 15 14 13 13
Wind_Direction
190 238 210 215 220 231 225 204 143 206 185 104 289 295 283 30 177 79 139 145 150 150 158 156 159 155 157 163 159 144 118 111 118 122 121 106 97 88 87 93 103 106 105 109 105 98 90 77 73
180 218 207 224 235 212 224 174 192 191 93 322 212 256 265 87 49 128 142 147 148 151 156 156 157 158 167 163 154 136 122 103 118 127 126 110 96 87 83 87 93 100 108 109 105 98 89 83 86
199 205 208 220 228 226 220 149 194 174 171 215 197 250 15 74 87 140 160 150 150 155 149 164 157 162 165 155 145 139 118 102 122 131 129 117 101 87 81 86 91 99 108 110 104 100 94 90 90
208 200 244 230 215 223 249 158 104 203 144 159 295 168 94 64 128 154 149 151 149 150 159 164 165 164 163 153 144 137 123 118 132 137 134 123 127 100 86 85 89 98 108 111 111 106 101 96 95
213 214 220 217 221 212 156 121 187 184 179 162 254 157 94 92 142 149 150 154 152 150 176 170 164 166 163 156 153 141 136 142 141 142 136 126 143 108 96 91 92 92 96 98 98 95 88 84 84
212 213 215 210 211 179 158 144 135 204 151 176 196 304 88 87 137 148 153 155 156 156 166 166 168 169 163 159 154 147 140 141 139 141 142 134 152 134 120 105 105 104 106 107 108 106 98 91 89
217 212 223 213 200 146 182 191 126 87 167 135 165 254 102 116 149 144 157 159 157 171 158 168 171 173 168 162 159 152 147 140 146 140 142 132 143 146 132 118 104 105 103 105 112 114 109 99 93
220 241 233 224 191 167 167 168 104 34 93 118 194 188 142 153 150 144 164 167 161 168 172 168 172 170 174 170 161 156 158 150 143 147 154 163 174 137 137 138 116 107 114 122 122 109 92 78 58
218 242 223 195 174 156 171 177 107 60 131 91 24 40 141 168 164 167 168 162 166 181 176 174 173 173 168 170 170 159 166 167 158 157 152 138 129 125 166 176 186 232 248 258 269 299 338 358 3
196 230 208 193 189 152 171 188 113 144 154 128 67 40 154 177 172 180 175 169 178 181 174 183 171 188 164 171 171 162 161 172 163 166 175 146 177 197 188 239 241 252 264 273 281 289 291 314 335
200 224 240 239 219 216 157 155 104 62 116 43 29 13 168 170 170 168 174 182 179 180 179 187 183 185 181 177 160 177 167 170 180 177 177 181 190 232 227 264 252 255 252 271 280 285 314 268 258
242 210 232 286 181 185 177 176 123 43 65 58 17 24 183 172 173 178 181 185 186 192 171 188 185 190 196 176 166 188 185 187 190 194 190 191 192 217 206 216 233 247 256 244 245 245 254 274 287
211 203 205 234 218 176 172 178 117 193 221 346 15 41 177 184 173 187 185 187 194 197 200 184 193 189 202 193 176 193 195 199 199 201 204 202 204 205 218 226 234 236 240 235 240 258 261 272 266
206 219 195 216 247 210 194 185 169 210 226 219 313 36 71 181 203 196 195 184 193 194 202 199 197 195 203 195 194 188 202 210 202 208 211 215 206 215 221 226 235 240 250 243 248 251 265 266 273
209 205 201 180 189 215 195 194 197 194 201 217 237 327 57 74 193 196 210 210 201 197 194 201 198 204 208 202 201 200 207 207 211 208 216 214 218 223 230 221 231 245 245 250 252 260 265 269 274
189 190 201 210 218 149 200 212 205 209 204 237 254 268 270 16 140 185 192 201 205 203 196 194 195 197 201 207 206 196 209 211 212 213 219 226 229 241 245 246 246 243 250 257 260 263 266 269 270
196 190 206 188 199 178 206 228 250 201 234 250 250 257 245 235 230 194 202 203 203 199 193 200 195 195 199 204 207 206 207 214 218 222 226 236 240 247 253 251 252 252 255 258 265 264 265 268 270
178 208 196 191 198 211 209 232 140 193 207 234 247 251 243 230 221 226 224 210 207 199 203 203 211 204 204 207 212 216 220 217 223 230 237 238 242 247 255 258 258 254 259 265 264 266 262 266 272
194 208 187 221 164 191 223 222 202 190 222 231 238 244 250 225 226 223 234 240 219 213 208 207 219 221 208 210 219 222 231 239 235 234 229 235 242 246 252 260 260 264 265 263 263 267 267 271 279
242 198 186 177 153 198 219 224 222 228 225 227 234 231 236 239 231 225 224 237 259 214 215 214 209 210 211 215 220 222 231 231 234 244 248 248 254 258 262 266 267 263 264 269 273 270 270 269 267
232 186 170 181 174 214 255 235 228 227 228 238 237 233 228 231 234 232 226 234 250 239 217 214 217 215 221 219 222 231 237 245 249 254 259 261 264 266 268 269 270 271 269 269 271 272 269 271 274
181 196 179 169 175 205 207 260 205 214 220 231 231 233 230 227 230 240 219 218 241 250 230 222 224 227 232 236 240 243 247 253 249 249 261 270 270 271 272 273 274 275 275 275 275 275 275 271 272
197 137 171 152 213 279 181 253 267 182 221 231 231 231 234 232 229 231 211 221 232 247 235 230 228 229 232 233 236 240 241 245 253 261 268 271 275 274 275 275 275 274 273 273 275 277 278 275 269
149 152 119 213 242 242 246 220 252 206 235 230 238 232 228 232 233 232 226 232 224 234 234 230 233 235 233 233 232 232 237 247 258 265 269 273 275 277 277 276 275 276 276 276 277 277 276 278 278
156 160 148 183 206 237 354 224 250 351 206 235 245 250 233 227 232 232 223 218 219 223 235 235 227 229 230 229 232 238 247 256 263 269 271 273 274 277 276 276 276 276 276 277 278 279 279 278 275
191 185 175 193 196 203 140 232 237 295 251 286 268 258 239 259 239 229 222 214 220 224 228 229 225 223 226 231 234 244 254 262 267 269 269 268 268 271 276 278 278 278 279 279 278 278 277 274 275
173 202 360 344 32 258 174 222 268 243 209 239 250 250 235 226 236 232 228 215 215 223 224 224 218 221 222 228 235 248 261 266 268 267 266 267 269 271 275 277 279 279 279 279 279 278 275 276 274
225 166 189 279 180 216 160 232 124 142 112 96 79 46 356 285 245 239 220 217 209 217 212 210 213 217 216 226 238 247 257 261 264 267 269 271 274 275 277 279 280 281 281 280 279 277 275 271 270
166 189 229 287 308 301 182 139 97 118 103 93 80 56 32 3 295 234 212 199 195 195 195 198 201 207 215 226 240 248 253 260 265 268 271 273 275 275 276 277 279 280 280 280 277 275 274 270 268
279 247 215 222 199 249 324 324 166 163 119 139 108 43 7 330 308 217 192 183 181 184 189 191 199 207 219 230 240 249 257 262 268 272 274 275 275 276 276 276 276 276 275 274 274 273 268 264 262